Weather History for Spirit of St Louis, MO

Change the Weather History Date:

Tuesday, July 16, 2013

  Actual Average Record
Temperature  
Mean Temperature 86 °F -  
Max Temperature 102 °F 87 °F 102 °F (2013)
Min Temperature 70 °F 65 °F 60 °F (1997)
Cooling Degree Days 21    
Growing Degree Days 36 (Base 50)    
Moisture  
Dew Point 71 °F    
Average Humidity 70    
Maximum Humidity 97    
Minimum Humidity 35    
Precipitation  
Precipitation 0.00 in - - ()
Sea Level Pressure  
Sea Level Pressure 30.24 in    
Wind  
Wind Speed 1 mph (South)    
Max Wind Speed 8 mph    
Max Gust Speed -    
Visibility 10 miles    
Events      
Averages and records for this station are not official NWS values.
T = Trace of Precipitation, MM = Missing Value Source: NWS Daily Summary

Daily Weather History Graph

Daily Weather History Graph

Search for Another Location

Airport:

Trip Planner

Search our weather history database for the weather conditions in past years. The results will help you decide how hot, cold, wet, or windy it might be!

Date:

Astronomy

Jul. 16, 2013 Rise Set
Actual Time 5:51 AM CDT 8:25 PM CDT
Civil Twilight 5:20 AM CDT 8:56 PM CDT
Nautical Twilight 4:41 AM CDT 9:34 PM CDT
Astronomical Twilight 3:58 AM CDT 10:17 PM CDT
Moon 2:09 PM CDT (7/16) 12:18 AM CDT (7/16)
Length of Visible Light 15h 36m
Length of Day
14h 34m
First Quarter, 56% of the Moon is Illuminated
Jul 16
First Quarter
Jul 22
Full
Jul 29
Last Quarter
Aug 6
New
Aug 14
First Quarter

Hourly Weather History & Observations

Time (CDT) Temp. Heat Index Dew Point Humidity Pressure Visibility Wind Dir Wind Speed Gust Speed Precip Events Conditions
12:54 AM 73.9 °F - 71.1 °F 91% 30.21 in 9.0 mi Calm Calm - N/A   Clear
1:54 AM 73.9 °F - 72.0 °F 93% 30.20 in 9.0 mi Calm Calm - N/A   Clear
2:54 AM 73.0 °F - 71.1 °F 93% 30.19 in 8.0 mi Calm Calm - N/A   Clear
3:54 AM 72.0 °F - 70.0 °F 93% 30.20 in 6.0 mi Calm Calm - N/A   Clear
4:54 AM 72.0 °F - 70.0 °F 93% 30.22 in 9.0 mi Calm Calm - N/A   Clear
5:54 AM 70.0 °F - 69.1 °F 97% 30.25 in 10.0 mi Calm Calm - N/A   Scattered Clouds
6:54 AM 73.9 °F - 71.1 °F 91% 30.26 in 10.0 mi Calm Calm - N/A   Clear
7:54 AM 86.0 °F 93.0 °F 73.0 °F 65% 30.26 in 10.0 mi Calm Calm - N/A   Partly Cloudy
8:54 AM 90.0 °F 96.9 °F 72.0 °F 55% 30.27 in 10.0 mi South 4.6 mph - N/A   Clear
9:54 AM 93.0 °F 100.7 °F 72.0 °F 50% 30.27 in 10.0 mi SSW 8.1 mph - N/A   Scattered Clouds
10:54 AM 95.0 °F 103.2 °F 72.0 °F 47% 30.27 in 10.0 mi Variable 4.6 mph - N/A   Mostly Cloudy
11:54 AM 98.1 °F 105.0 °F 70.0 °F 40% 30.26 in 10.0 mi Calm Calm - N/A   Scattered Clouds
12:54 PM 89.1 °F 94.1 °F 70.0 °F 53% 30.25 in 10.0 mi Variable 3.5 mph - N/A   Mostly Cloudy
1:54 PM 100.9 °F 109.7 °F 71.1 °F 38% 30.24 in 10.0 mi Calm Calm - N/A   Mostly Cloudy
2:54 PM - - - N/A% 30.25 in 10.0 mi East 5.8 mph - N/A   Mostly Cloudy
3:54 PM - - - N/A% 30.25 in 10.0 mi Calm Calm - N/A   Mostly Cloudy
4:54 PM 91.0 °F 96.6 °F 70.0 °F 50% 30.21 in 10.0 mi Variable 3.5 mph - N/A   Mostly Cloudy
5:54 PM 102.0 °F 109.6 °F 70.0 °F 35% 30.20 in 10.0 mi South 4.6 mph - N/A   Scattered Clouds
6:54 PM - - - N/A% 30.24 in 10.0 mi SSE 6.9 mph - N/A   Scattered Clouds
7:54 PM 87.1 °F 93.6 °F 72.0 °F 61% 30.21 in 10.0 mi South 3.5 mph - N/A   Clear
8:54 PM 80.1 °F 84.2 °F 73.0 °F 79% 30.22 in 10.0 mi Calm Calm - N/A   Clear
9:54 PM 79.0 °F - 73.0 °F 82% 30.24 in 10.0 mi Calm Calm - N/A   Clear
10:54 PM 77.0 °F - 72.0 °F 84% 30.25 in 10.0 mi South 3.5 mph - N/A   Clear
11:54 PM 77.0 °F - 72.0 °F 84% 30.26 in 10.0 mi Calm Calm - N/A   Clear